Regional Weather Roundup
Issued by NWS

Home | Current Version | Previous Version | Text Only | Print | Product List | Glossary Off
Versions: 1 2 3 4 5 6 7 8 9 10 11 12 13 14 15 16 17 18 19 20 21 22 23 24 25 26 27 28 29 30 31 32 33 34 35 36 37 38 39 40 41 42 43 44 45 46 47 48 49 50

000
ASUS43 KLMK 141602
RWRKY
KENTUCKY REGIONAL WEATHER ROUNDUP
NATIONAL WEATHER SERVICE LOUISVILLE KY
1100 AM EST SUN FEB 14 2016

NOTE "FAIR" INDICATES FEW OR NO CLOUDS BELOW 12,000 FEET
WITH NO SIGNIFICANT WEATHER AND/OR OBSTRUCTIONS TO VISIBILITY.

KYZ001>023-026-027-061>063-070>075-141700-
WESTERN AND SOUTH CENTRAL KENTUCKY

CITY           SKY/WX    TMP DP  RH WIND       PRES   REMARKS
PADUCAH        FRZ RAIN  24  20  84 E9        30.22F WCI  14
HENDERSON      CLOUDY    23  14  68 SE14G20   30.27S WCI  11
OWENSBORO      CLOUDY    22  16  78 SE17      30.29F WCI   8
HOPKINSVILLE   FLURRIES  24  19  80 E13       30.24F WCI  12
BOWLING GREEN  CLOUDY    24  15  68 E10       30.32F WCI  14
GLASGOW        NOT AVBL
$$

KYZ024-025-028>034-038-045-046-053-141700-
NORTH CENTRAL KENTUCKY

CITY           SKY/WX    TMP DP  RH WIND       PRES   REMARKS
LOUISVILLE/SDF CLOUDY    21  10  62 E14       30.35F WCI   8
LOUISVILLE/LOU CLOUDY    20  11  68 E12       30.36F WCI   8
FORT KNOX      CLOUDY    20   9  61 E13       30.30S WCI   8
$$

KYZ035>037-039>044-047>052-055>060-089>105-141700-
NORTHEAST KENTUCKY

CITY           SKY/WX    TMP DP  RH WIND       PRES   REMARKS
LEXINGTON      LGT SNOW  17  10  74 E13       30.35F WCI   4
COVINGTON      CLOUDY    18   5  57 SE15      30.37F WCI   4
FRANKFORT      LGT SNOW  18  11  74 E10       30.36F WCI   6
$$

KYZ054-064>069-076>088-106>120-141700-
SOUTHEAST KENTUCKY

CITY           SKY/WX    TMP DP  RH WIND       PRES   REMARKS
JACKSON        CLOUDY    17   6  62 VRB5      30.36F WCI  10
LONDON         FLURRIES  19  10  68 SE6       30.35F WCI  11
SOMERSET       NOT AVBL
MIDDLESBORO    NOT AVBL
MONTICELLO     FLURRIES  21  13  71 E8        30.34F WCI  11
$$




USA.gov is the U.S. government's official web portal to all federal, state and local government web resources and services.